Regional Weather Roundup
Issued by NWS

Home | Current Version | Previous Version | Graphics & Text | Print | Product List | Glossary On
Versions: 1 2 3 4 5 6 7 8 9 10 11 12 13 14 15 16 17 18 19 20 21 22 23 24 25 26 27 28 29 30 31 32 33 34 35 36 37 38 39 40 41 42 43 44 45 46 47 48 49 50
000
ASUS43 KDMX 231806
RWRIA

WEATHER ROUNDUP FOR IOWA
NATIONAL WEATHER SERVICE DES MOINES IA
100 PM CDT THU MAR 23 2017

NOTE: "FAIR" INDICATES FEW OR NO CLOUDS BELOW 12,000 FEET WITH NO
SIGNIFICANT WEATHER AND/OR OBSTRUCTIONS TO VISIBILITY.

* - THESE STATIONS ARE NOT NWS STATIONS...THUS NOT UNDER NWS
QUALITY CONTROL.  THEY ALSO DO NOT REPORT WEATHER SUCH
AS PRECIPITATION OR FOG.

IAZ001>003-012>014-020>022-031>034-043>046-231900-
   NORTHWEST IOWA

CITY           SKY/WX    TMP DP  RH WIND       PRES   REMARKS
CARROLL *      CLOUDY    50  36  57 SE22      29.90F
CHEROKEE *     CLOUDY    44  36  72 SE9       29.88F
DENISON *      CLOUDY    52  37  58 S18G28    29.85F
LE MARS *      CLOUDY    50  36  57 SE23      29.81F
ORANGE CITY *  CLOUDY    43  39  87 SE12G21   29.81F
SHELDON *      MIX PCPN  39  39 100 SE30G41   29.81F WCI  27
SIOUX CITY     CLOUDY    53  37  54 SE22G28   29.81F
6HR MIN TEMP:  39; 6HR MAX TEMP:  53;

SPENCER        LGT RAIN  39  33  79 SE24G36   29.86F WCI  28
6HR MIN TEMP:  38; 6HR MAX TEMP:  42; 6HR PCP:  0.24;

STORM LAKE *   CLOUDY    45  32  61 SE15      29.91R
$$

IAZ055>058-069>071-079>083-090>094-231900-
   SOUTHWEST IOWA

CITY           SKY/WX    TMP DP  RH WIND       PRES   REMARKS
ATLANTIC *     SUNNY     57  37  47 SE21G29   29.87F
AUDUBON *      CLOUDY    52  37  58 SE15G25   29.89F
CLARINDA *     SUNNY     64  39  39 S18G29    29.89F
COUNCIL BLFS * SUNNY     63  39  42 S23G31    29.82F
CRESTON *      MOSUNNY   55  37  50 SE24G31   29.93F
HARLAN  *      MOSUNNY   57  37  47 SE23G29   29.88F
LAMONI         MOSUNNY   55  35  47 SE22G30   29.97F
6HR MIN TEMP:  42; 6HR MAX TEMP:  56; 6HR PCP:  0.01;

RED OAK *      SUNNY     63  39  42 SE21G28   29.87F
SHENANDOAH *   SUNNY     66  41  39 S21G26    29.86F
$$

IAZ047>049-059>061-072>074-084-231900-
   CENTRAL IOWA

CITY           SKY/WX    TMP DP  RH WIND       PRES   REMARKS
AMES           CLOUDY    45  31  58 SE20G29   29.99F
6HR MIN TEMP:  38; 6HR MAX TEMP:  45;

ANKENY *       CLOUDY    45  32  61 SE21      29.99F
BOONE *        CLOUDY    45  30  57 SE25      29.96F
CHARITON *     PTSUNNY   48  34  57 SE18G26   30.01F
DES MOINES     PTSUNNY   49  33  54 SE25      29.99F
6HR MIN TEMP:  42; 6HR MAX TEMP:  50;

GRINNELL*      CLOUDY    41  31  68 SE22      30.08F
MARSHALLTOWN   CLOUDY    40  31  70 SE18G28   30.05F WCI  31
6HR MIN TEMP:  37; 6HR MAX TEMP:  41;

NEWTON *       CLOUDY    43  32  65 SE24      30.03F
PELLA *        DRIZZLE   40  33  74 SE16G22   30.07F WCI  32
PERRY *        CLOUDY    49  32  51 SE23      29.95F
$$

IAZ004>006-015-016-023>025-035-036-231900-
   NORTH CENTRAL IOWA

CITY           SKY/WX    TMP DP  RH WIND       PRES   REMARKS
ALGONA *       CLOUDY    39  28  65 SE12G23   29.98R WCI  32
CLARION *      CLOUDY    41  28  60 SE23G33   29.97F
ESTHERVILLE    CLOUDY    37  31  78 SE25G35   29.90F WCI  25
6HR MIN TEMP:  35; 6HR MAX TEMP:  40; 6HR PCP: TRACE;

FORT DODGE *   CLOUDY    45  27  49 SE16G24   29.94F
MASON CITY     CLOUDY    38  26  62 SE21G28   30.02F WCI  28
6HR MIN TEMP:  34; 6HR MAX TEMP:  38;

FOREST CITY *  CLOUDY    37  28  70 SE17G26   29.99F WCI  28
WEBSTER CITY * CLOUDY    45  28  53 SE24G33   29.94F
IOWA FALLS *   CLOUDY    42  28  58 SE18G25   30.03F
$$

IAZ007>011-017>019-026>030-037>042-050>054-066-231900-
   NORTHEAST IOWA

CITY           SKY/WX    TMP DP  RH WIND       PRES   REMARKS
CEDAR RAPIDS   CLOUDY    39  34  82 SE23      30.11F WCI  28
6HR MIN TEMP:  35; 6HR MAX TEMP:  39; 6HR PCP: TRACE;

CHARLES CITY * CLOUDY    37  28  70 SE20G26   30.07F WCI  27
CLINTON *      CLOUDY    40  26  57 SE18      30.20F WCI  31
DECORAH *      CLOUDY    39  27  60 S15G22    30.10S WCI  31
DUBUQUE        CLOUDY    40  26  57 S20G28    30.16F WCI  30
6HR MIN TEMP:  32; 6HR MAX TEMP:  40;

MONTICELLO *   CLOUDY    41  28  60 SE16G28   30.15F
OELWEIN *      CLOUDY    41  28  60 S22G33    30.10F
WATERLOO       CLOUDY    40  27  59 SE24G30   30.08F WCI  29
6HR MIN TEMP:  35; 6HR MAX TEMP:  40;

$$

IAZ064-065-067-068-078-231900-
   EAST CENTRAL IOWA

CITY           SKY/WX    TMP DP  RH WIND       PRES   REMARKS
DAVENPORT      CLOUDY    41  27  57 SE14      30.20F
6HR MIN TEMP:  34; 6HR MAX TEMP:  41;

IOWA CITY      CLOUDY    40  33  76 SE18G26   30.16F WCI  31
6HR MIN TEMP:  37; 6HR MAX TEMP:  41;

MUSCATINE *    CLOUDY    41  34  75 SE15      30.18F
QUAD CITIES    CLOUDY    42  27  55 SE15      30.20F
6HR MIN TEMP:  35; 6HR MAX TEMP:  42;

$$

IAZ062-063-075>077-085>089-095>099-231900-
   SOUTHEAST IOWA

CITY           SKY/WX    TMP DP  RH WIND       PRES   REMARKS
BURLINGTON     CLOUDY    38  37  97 SE12      30.18F WCI  30
6HR MIN TEMP:  36; 6HR MAX TEMP:  38; 6HR PCP:  0.02;

FAIRFIELD *    CLOUDY    37  36  93 SE14G23   30.11F WCI  29
FORT MADISON * CLOUDY    39  36  87 SE13      30.17F WCI  32
KEOKUK *       CLOUDY    39  36  87 SE16G22   30.15F WCI  30
OSKALOOSA *    CLOUDY    39  33  80 SE24      30.09F WCI  28
CENTERVILLE *    N/A     45  34  65 SE15G24   30.07F
OTTUMWA        CLOUDY    41  34  76 SE18G26   30.08F
6HR MIN TEMP:  39; 6HR MAX TEMP:  41; 6HR PCP: TRACE;

WASHINGTON *   CLOUDY    39  37  93 SE23      30.13F FOG     WCI  29
$$

ABBREVIATIONS USED IN REMARKS
   TC - TEMPERATURES IN CELSIUS
  WCI - WIND CHILL INDEX
   HX - HEAT INDEX
  VSB - VISIBILITY
$$




USA.gov is the U.S. government's official web portal to all federal, state and local government web resources and services.